IW2GOB-3 Weather Reports


time (UTC)temp
C
wind
direction
speed
KPH
gust
KPH
rain 1hr
cm
rain 24hr
cm
rain mn
cm
humidity
%
barometer
mb
20260506014524 13 107 3.2 4.8 0.00 0.51 0.00 94 1009.9
20260506013524 13 130 1.6 4.8 0.00 0.51 0.00 94 1010.2
20260506012524 13 121 4.8 14.5 0.00 0.51 0.00 94 1010.2
20260506011524 13 104 8.0 8.0 0.00 0.51 0.00 94 1009.9
20260506010524 13 94 3.2 4.8 0.00 0.51 0.00 94 1010.0
20260506005524 13 101 3.2 9.7 0.00 0.51 0.00 93 1009.9
20260506004524 13 66 4.8 12.9 0.00 0.51 0.00 93 1009.8
20260506003524 13 79 4.8 8.0 0.00 0.51 0.00 93 1010.1
20260506002524 13 72 3.2 4.8 0.00 0.51 0.00 93 1010.3
20260506001524 13 46 1.6 3.2 0.00 0.51 0.00 93 1010.5
20260506000524 13 31 1.6 3.2 0.00 0.51 0.00 93 1010.6
20260505235524 14 26 1.6 4.8 0.00 0.51 0.00 93 1010.8
20260505234524 14 89 1.6 4.8 0.00 0.51 0.00 93 1011.1
20260505233524 14 102 3.2 8.0 0.00 0.51 0.00 93 1011.1
20260505232524 14 130 3.2 11.3 0.00 0.51 0.00 93 1011.2
20260505231524 14 101 3.2 4.8 0.00 0.51 0.00 93 1011.1
20260505230524 14 76 1.6 3.2 0.00 0.51 0.00 93 1011.0
20260505225524 14 81 3.2 4.8 0.00 0.51 0.00 93 1011.1
20260505224524 14 71 1.6 3.2 0.00 0.51 0.00 93 1011.0
20260505223524 14 24 1.6 3.2 0.00 0.51 0.00 93 1011.3
20260505222524 14 40 0.0 3.2 0.00 0.51 0.00 93 1011.2
20260505221524 14 55 1.6 3.2 0.00 0.51 0.00 93 1011.3
20260505220524 14 61 1.6 3.2 0.00 0.51 0.00 93 1011.4
20260505215524 14 61 1.6 3.2 0.00 0.51 0.51 93 1011.4
20260505214524 14 79 1.6 3.2 0.00 0.51 0.51 92 1011.5
20260505213524 14 85 0.0 1.6 0.00 0.51 0.51 92 1011.6
20260505212523 14 60 1.6 4.8 0.00 0.51 0.51 92 1011.6
20260505211523 14 53 1.6 3.2 0.00 0.51 0.51 92 1011.6
20260505210523 14 79 1.6 3.2 0.00 0.51 0.51 92 1011.8
20260505205523 14 78 1.6 3.2 0.00 0.51 0.51 92 1011.9
20260505204523 14 79 0.0 1.6 0.03 0.51 0.51 91 1011.9
20260505203523 15 54 1.6 1.6 0.03 0.51 0.51 91 1011.8
20260505202523 15 72 3.2 4.8 0.05 0.51 0.51 91 1011.8
20260505201523 15 89 1.6 4.8 0.05 0.51 0.51 91 1011.8
20260505200523 15 113 1.6 3.2 0.05 0.51 0.51 90 1011.8
20260505195523 15 102 1.6 4.8 0.05 0.51 0.51 90 1011.9
20260505194523 15 103 3.2 4.8 0.03 0.48 0.48 89 1011.8
20260505193523 15 112 1.6 4.8 0.03 0.48 0.48 89 1011.8
20260505192523 15 104 0.0 4.8 0.00 0.46 0.46 89 1011.8
20260505191523 15 92 3.2 4.8 0.00 0.46 0.46 89 1011.7
20260505190523 15 129 3.2 4.8 0.00 0.46 0.46 89 1011.7
20260505185523 15 78 0.0 1.6 0.00 0.46 0.46 89 1011.5
20260505184523 15 63 0.0 1.6 0.00 0.46 0.46 89 1011.6
20260505183523 15 54 1.6 1.6 0.00 0.46 0.46 89 1011.6
20260505182523 15 76 1.6 3.2 0.00 0.46 0.46 89 1011.5
20260505181523 15 46 1.6 4.8 0.00 0.46 0.46 89 1011.4
20260505180523 15 107 3.2 8.0 0.00 0.46 0.46 89 1011.4
20260505175523 15 89 1.6 3.2 0.00 0.46 0.46 89 1011.3
20260505174523 15 61 4.8 8.0 0.00 0.46 0.46 89 1011.3
20260505173523 15 68 1.6 3.2 0.00 0.46 0.46 89 1011.4
20260505172523 15 84 1.6 3.2 0.00 0.46 0.46 89 1011.4
20260505171523 15 93 1.6 3.2 0.00 0.46 0.46 89 1011.4
20260505170523 15 95 3.2 4.8 0.00 0.46 0.46 89 1011.3
20260505165523 15 86 1.6 1.6 0.00 0.46 0.46 89 1011.2
20260505164523 15 115 3.2 8.0 0.00 0.46 0.46 89 1011.3
20260505163523 15 87 1.6 3.2 0.00 0.46 0.46 89 1011.4
20260505162523 15 103 1.6 4.8 0.00 0.46 0.46 89 1011.6
20260505161523 15 98 1.6 3.2 0.00 0.46 0.46 90 1011.6
20260505160523 15 127 1.6 4.8 0.00 0.46 0.46 92 1011.6
20260505152523 15 99 1.6 3.2 0.00 0.46 0.46 90 1011.6
20260505151523 15 105 8.0 14.5 0.00 0.46 0.46 90 1011.6
20260505150523 15 75 4.8 8.0 0.00 0.46 0.46 90 1011.7
20260505140523 15 81 4.8 8.0 0.03 0.46 0.46 88 1011.8
20260505124523 16 114 1.6 4.8 0.00 0.43 0.43 81 1012.1
20260505123523 16 117 1.6 4.8 0.00 0.43 0.43 80 1012.0
20260505122523 16 75 4.8 11.3 0.00 0.43 0.43 79 1011.9
20260505121523 16 78 4.8 8.0 0.00 0.43 0.43 79 1011.9
20260505120523 17 70 4.8 9.7 0.00 0.43 0.43 79 1012.0
20260505115523 16 67 8.0 12.9 0.00 0.43 0.43 80 1012.0
20260505114523 16 98 3.2 4.8 0.00 0.43 0.43 80 1012.0
20260505113523 16 149 8.0 11.3 0.00 0.43 0.43 81 1012.0
20260505112523 16 83 1.6 8.0 0.00 0.43 0.43 82 1012.0
20260505111523 15 64 4.8 4.8 0.00 0.43 0.43 83 1012.2
20260505110523 15 78 8.0 11.3 0.00 0.43 0.43 84 1012.3
20260505101523 15 94 1.6 3.2 0.00 0.43 0.43 89 1012.4
20260505100523 14 120 1.6 4.8 0.00 0.43 0.43 89 1012.4
20260505095523 14 92 1.6 3.2 0.00 0.43 0.43 89 1012.5
20260505094523 14 86 0.0 1.6 0.00 0.43 0.43 89 1012.4
20260505093523 14 79 0.0 3.2 0.00 0.43 0.43 90 1012.4
20260505092523 14 39 0.0 3.2 0.00 0.43 0.43 90 1012.3
20260505091523 14 77 1.6 1.6 0.00 0.43 0.43 90 1012.4
20260505090523 13 24 1.6 3.2 0.03 0.43 0.43 91 1012.2
20260505085523 13 322 1.6 3.2 0.03 0.43 0.43 91 1012.2
20260505084523 13 18 1.6 3.2 0.08 0.43 0.43 91 1012.0
20260505083523 13 288 0.0 1.6 0.08 0.43 0.43 91 1012.1
20260505082522 13 297 1.6 3.2 0.10 0.43 0.43 92 1012.2
20260505081523 13 317 0.0 3.2 0.20 0.43 0.43 92 1012.2
20260505080523 13 285 1.6 3.2 0.20 0.41 0.41 91 1012.1
20260505075522 13 309 1.6 3.2 0.23 0.41 0.41 91 1012.2
20260505074522 13 315 1.6 3.2 0.20 0.36 0.36 91 1012.2
20260505073522 13 15 1.6 3.2 0.20 0.36 0.36 91 1012.0
20260505072522 13 112 0.0 1.6 0.18 0.33 0.33 91 1012.2
20260505071522 13 112 0.0 1.6 0.10 0.23 0.23 91 1012.2
20260505070522 13 167 0.0 1.6 0.10 0.20 0.20 90 1012.3
20260505065522 13 255 1.6 3.2 0.10 0.18 0.18 90 1012.4
20260505064522 13 281 3.2 4.8 0.10 0.15 0.15 90 1012.5
20260505063522 13 248 4.8 4.8 0.13 0.15 0.15 89 1012.5
20260505062522 13 226 8.0 12.9 0.13 0.15 0.15 89 1012.4
20260505061522 13 235 8.0 9.7 0.13 0.13 0.13 88 1012.4
20260505060522 13 259 11.3 12.9 0.10 0.10 0.10 87 1012.3
20260505055522 13 248 9.7 9.7 0.08 0.08 0.08 86 1012.2
20260505054522 13 245 9.7 16.1 0.05 0.05 0.05 84 1012.2
20260505053522 14 265 3.2 4.8 0.03 0.03 0.03 83 1011.8
20260505052522 15 241 1.6 4.8 0.03 0.03 0.03 81 1011.7
20260505051522 15 229 3.2 4.8 0.00 0.00 0.00 79 1011.7
20260505050522 15 232 1.6 3.2 0.00 0.00 0.00 78 1011.6
20260505041522 15 230 1.6 4.8 0.00 0.00 0.00 73 1011.3
20260505040522 15 219 1.6 3.2 0.00 0.00 0.00 72 1011.3
20260505035522 15 230 1.6 1.6 0.00 0.00 0.00 72 1011.3
20260505034522 16 223 1.6 3.2 0.00 0.00 0.00 71 1011.2
20260505033522 16 190 0.0 1.6 0.00 0.00 0.00 71 1011.4
20260505032522 16 207 0.0 1.6 0.00 0.00 0.00 70 1011.5
20260505031522 16 207 1.6 3.2 0.00 0.00 0.00 69 1011.7
20260505030522 16 198 1.6 3.2 0.00 0.00 0.00 68 1011.8
20260505025522 16 244 1.6 3.2 0.00 0.00 0.00 66 1011.8
20260505024522 16 291 0.0 1.6 0.00 0.00 0.00 65 1012.0
20260505023522 16 265 1.6 3.2 0.00 0.00 0.00 64 1012.0
20260505022522 16 309 3.2 4.8 0.00 0.00 0.00 63 1012.1
20260505021522 16 302 3.2 8.0 0.00 0.00 0.00 62 1012.1
20260505020522 16 295 3.2 8.0 0.00 0.00 0.00 62 1012.2
20260505015522 17 283 4.8 4.8 0.00 0.00 0.00 61 1012.3